Dewpoint
50 50 49 49 50 48 49 45 36 48 51 37 34 31 31 33 33 35 34 34 32 31 32 31 31 31 31 36 35 30 33 31 20 22 31 33 31 28 27 20 20 26 26 22
50 49 49 49 49 49 46 41 40 46 47 36 38 34 33 34 33 33 33 33 34 34 33 31 32 33 37 37 34 32 33 29 17 20 29 30 30 29 30 30 30 26 25 22
50 49 49 48 49 49 45 40 40 40 39 38 33 32 33 32 34 34 34 34 34 34 33 34 34 34 36 38 37 35 35 30 23 11 16 23 21 23 26 27 27 25 25 24
49 49 49 48 49 48 46 42 41 40 38 36 34 34 33 31 31 34 34 32 32 33 32 32 33 34 34 35 37 38 36 27 29 27 26 25 26 26 25 25 27 26 26 24
49 49 49 48 50 46 44 41 40 39 37 37 34 35 32 30 32 31 31 30 32 29 27 25 27 28 29 26 36 34 36 30 32 28 28 26 26 26 26 27 28 28 28 27
50 50 49 48 50 48 44 45 42 40 35 35 36 34 33 31 33 35 34 33 32 31 31 33 37 38 37 35 33 34 35 35 32 27 29 29 25 27 25 25 28 27 25 26
50 50 50 48 50 49 47 45 41 41 35 36 34 33 34 33 33 33 35 35 32 36 40 39 37 35 36 38 38 38 36 36 34 31 30 22 26 27 27 27 27 26 27 30
51 51 51 49 49 50 48 45 41 40 32 37 34 34 35 35 36 36 35 39 40 41 39 36 29 29 26 32 35 36 37 37 31 29 25 24 25 27 27 26 25 29 32 34
51 51 51 49 48 50 51 48 44 41 34 36 34 35 35 36 37 38 41 42 42 41 40 35 22 24 27 24 29 35 35 36 34 30 26 23 26 27 30 31 25 35 38 39
50 51 51 50 48 50 52 50 49 41 37 38 37 36 35 37 37 37 40 41 40 42 38 32 32 30 31 25 24 26 32 32 30 29 28 28 29 31 32 29 32 38 39 38
50 50 50 51 49 48 51 51 50 46 40 40 41 39 38 37 37 37 40 39 41 40 35 35 35 34 33 30 29 28 26 29 29 30 28 26 31 31 33 36 38 39 39 38
50 50 50 51 49 49 50 49 49 49 45 43 49 48 44 43 39 39 42 39 39 41 39 38 36 32 33 35 28 31 28 29 27 30 30 32 34 35 37 39 39 39 39 37
51 50 50 50 50 48 50 50 49 47 44 45 46 45 47 49 45 45 41 42 41 40 42 41 39 32 37 31 33 33 32 34 33 33 33 34 37 38 40 41 40 39 38 34
51 51 50 50 50 48 49 50 48 47 43 36 43 43 44 46 49 48 46 43 44 43 43 38 35 34 37 36 34 34 33 34 33 34 37 37 36 40 41 40 40 39 34 30
50 50 50 50 50 49 52 53 51 50 47 40 43 44 44 45 48 47 46 45 44 44 39 37 37 41 39 39 38 36 35 32 35 35 38 38 38 39 39 40 38 32 27 23
49 50 50 50 50 50 52 48 51 52 51 43 39 44 43 43 45 47 46 46 47 46 43 40 42 42 39 35 34 37 37 38 40 38 39 39 39 39 38 34 28 26 23 22
49 50 50 50 50 53 49 46 48 49 51 43 40 41 41 41 43 43 44 46 46 45 44 41 42 42 40 37 33 36 38 37 38 39 38 37 35 34 32 29 25 25 26 25
49 50 50 50 49 49 49 51 49 50 47 44 38 37 39 41 40 39 40 40 43 44 43 40 40 40 41 35 36 35 33 35 36 36 37 36 33 31 28 26 26 25 22 20
49 48 49 49 48 47 47 48 49 49 46 40 38 34 32 41 38 38 38 40 37 40 37 37 39 36 35 37 35 33 34 36 35 33 32 30 28 26 25 24 20 19 20 21
48 48 46 42 43 47 48 46 45 44 42 41 39 41 37 40 36 35 37 36 36 33 34 35 33 33 33 30 34 34 35 34 33 31 29 28 25 19 18 20 21 22 21 24
44 39 38 42 46 43 40 39 38 36 35 36 36 36 36 38 36 35 35 33 33 30 31 32 31 30 33 32 35 34 33 32 30 26 23 20 20 19 21 23 23 26 27 27
43 42 43 42 39 36 34 33 32 32 32 33 34 35 36 36 39 35 31 31 30 27 30 29 26 28 29 30 30 30 30 25 20 20 19 20 22 25 26 25 25 27 29 29
43 38 34 33 32 30 30 28 29 30 33 34 34 33 34 34 35 31 31 28 28 28 26 25 26 28 29 29 29 30 26 24 24 20 21 24 26 26 27 26 28 29 29 29
35 33 30 31 29 30 31 32 33 33 34 34 34 31 32 31 30 29 28 26 26 24 22 23 25 24 21 23 26 22 19 19 21 23 25 27 27 27 28 27 28 28 28 28
32 32 28 29 30 32 32 33 33 33 35 34 32 31 31 28 26 27 25 23 21 22 21 23 25 21 22 24 22 21 21 22 23 24 26 27 27 27 28 29 30 30 29 28
29 28 28 29 30 30 32 33 32 34 33 33 32 29 28 26 26 24 23 20 17 20 26 27 24 24 25 26 25 22 22 23 24 24 26 27 28 28 28 29 29 29 29 28
26 28 30 29 30 31 32 34 33 35 32 29 27 26 25 24 23 22 21 19 22 25 24 23 24 25 26 25 25 25 26 25 25 26 27 28 29 30 29 29 27 29 30 30
Wind_Speed
13 14 17 22 18 5 4 3 4 5 2 5 2 5 5 3 5 3 4 5 7 5 4 4 3 4 2 2 2 2 4 1 1 1 2 3 1 2 1 2 2 3 4 9
12 13 16 20 17 10 4 3 4 3 2 5 4 4 5 4 3 3 3 4 3 3 5 5 5 4 3 3 1 2 2 1 2 2 4 3 4 3 2 1 2 10 6 5
11 12 15 18 16 8 1 3 5 3 2 1 12 13 7 6 5 5 6 6 8 8 6 4 7 5 3 1 1 3 1 2 4 6 6 5 7 7 7 9 7 11 18 22
10 12 15 18 16 6 1 3 2 1 6 5 12 7 8 13 5 3 3 4 4 6 5 5 4 3 4 2 3 1 1 3 4 8 12 15 13 15 14 17 18 14 18 17
9 12 15 19 18 5 4 3 4 3 4 7 13 3 10 10 6 4 4 9 8 6 6 3 5 3 3 2 4 2 1 2 3 5 9 11 14 17 16 15 14 15 17 19
8 11 14 18 20 6 3 2 2 2 1 4 5 5 9 10 10 5 4 15 12 10 9 5 6 6 5 3 1 2 2 1 1 5 10 16 9 3 4 5 4 10 12 10
7 10 13 16 17 9 3 2 3 3 5 3 5 8 6 14 4 10 9 6 7 4 11 11 8 10 7 4 4 1 4 3 1 4 9 4 2 6 10 15 15 9 11 4
6 9 12 15 16 8 4 3 2 4 6 4 6 10 11 11 9 10 9 4 4 7 3 2 2 2 2 5 7 4 2 4 3 2 5 18 15 4 2 3 14 4 3 9
4 7 10 13 14 7 5 4 1 4 11 7 6 8 11 9 7 5 4 4 3 3 3 2 2 1 1 3 3 4 5 4 3 3 5 5 2 3 4 4 12 3 10 20
3 4 8 11 12 10 2 4 1 1 6 4 5 5 10 6 5 7 5 5 2 2 3 3 4 3 1 3 3 4 2 2 6 10 8 10 7 5 0 4 4 13 9 7
3 2 5 8 10 11 2 3 3 1 4 5 2 4 6 5 6 7 8 7 2 3 4 5 4 4 5 3 3 3 4 3 5 3 5 7 2 3 3 6 8 2 4 5
5 2 2 6 9 11 3 2 2 3 5 4 1 2 3 2 5 8 8 1 6 7 5 4 4 4 4 5 6 4 7 8 7 9 9 6 9 10 5 2 5 7 2 5
7 5 2 3 6 9 4 3 1 3 5 4 4 4 1 1 2 2 6 2 5 5 3 6 4 4 7 8 9 9 7 7 6 9 13 14 13 7 4 2 1 3 5 4
9 7 4 0 4 6 2 2 2 4 6 5 4 1 2 2 2 2 3 11 9 8 3 4 5 5 9 6 9 13 12 9 13 16 17 14 6 1 3 3 4 5 6 6
10 8 7 4 2 4 5 4 2 2 1 5 4 1 2 3 2 6 10 16 10 5 5 4 7 4 5 3 2 16 16 20 9 8 5 8 7 4 9 7 8 5 5 7
12 10 8 7 4 1 0 1 1 3 2 4 6 2 1 3 3 7 9 9 5 4 6 5 4 3 7 6 6 10 11 9 9 9 6 7 4 2 5 4 3 5 8 11
17 14 11 9 5 0 1 1 1 2 1 3 2 3 2 2 3 3 3 2 2 4 4 5 6 6 7 5 11 8 5 2 2 4 4 2 5 2 2 3 5 8 14 17
20 17 13 8 9 8 2 2 3 3 7 3 4 2 1 3 3 4 0 3 3 4 2 1 3 3 4 8 8 3 2 2 3 3 3 1 6 3 3 6 10 14 17 19
22 19 19 4 2 6 4 6 7 6 1 4 5 10 7 5 3 2 2 2 5 2 6 4 4 6 8 7 5 3 2 3 7 8 7 5 1 4 7 10 14 17 18 19
26 8 6 5 4 12 14 3 4 2 1 2 6 3 5 5 4 3 5 1 4 5 4 1 5 5 2 3 4 3 4 10 10 7 4 2 4 8 11 12 13 14 17 20
3 4 4 2 6 3 2 4 7 4 3 4 4 4 8 4 4 5 1 4 4 3 2 4 4 5 8 8 10 9 7 7 5 4 2 3 7 10 12 13 14 14 15 17
6 8 8 3 2 3 4 9 5 6 7 5 7 4 4 3 2 3 2 3 3 3 2 3 4 4 9 12 12 8 8 7 3 1 4 7 8 9 10 13 15 15 16 17
5 6 4 3 2 3 7 7 4 7 7 7 5 5 3 3 4 5 3 5 4 2 4 4 3 9 11 11 9 9 7 2 3 6 8 10 11 11 11 14 16 15 17 16
3 1 5 2 3 3 3 2 4 3 5 9 10 5 2 1 3 2 3 1 2 4 5 6 5 12 11 8 7 6 3 3 7 10 12 11 13 14 14 14 15 14 17 18
2 1 3 2 4 4 3 4 4 4 8 7 7 5 1 2 4 2 4 4 4 5 4 1 8 10 8 8 6 2 5 10 11 11 12 13 14 15 17 13 12 12 16 16
2 3 5 3 5 3 3 6 6 3 7 5 3 3 3 2 4 4 5 4 6 2 2 4 7 6 5 6 5 7 10 12 14 13 13 13 15 15 16 15 15 16 15 15
2 3 5 3 3 5 4 3 6 8 7 5 4 6 3 5 3 4 5 5 1 4 5 3 2 4 7 7 8 11 12 13 13 13 12 13 12 11 12 16 17 14 13 11
Wind_Direction
8 16 18 12 13 43 125 140 145 11 290 146 77 128 118 105 117 87 92 89 96 116 100 94 106 135 77 15 337 25 25 14 262 6 61 333 325 142 111 301 223 228 309 282
9 15 17 16 16 15 143 118 99 43 281 157 119 124 102 78 124 61 107 105 87 119 122 117 123 127 125 25 37 26 36 296 271 187 177 206 245 200 141 88 223 245 246 265
12 10 16 14 12 4 97 141 130 86 72 19 150 145 136 117 64 80 82 109 120 122 103 78 141 142 144 38 69 54 247 240 260 298 323 317 263 270 260 251 252 267 265 281
16 7 11 8 8 359 161 37 105 34 161 152 145 133 149 141 135 94 101 110 160 140 123 112 132 146 162 129 131 87 322 282 284 287 290 289 284 275 267 251 250 263 273 298
20 9 7 6 6 359 83 133 148 99 88 129 136 113 155 155 127 148 132 145 123 121 128 131 171 176 216 209 146 115 21 285 344 294 297 295 294 275 265 256 253 258 275 286
24 13 7 8 6 352 93 116 88 136 13 133 158 147 150 154 133 56 96 134 119 111 109 84 64 73 71 86 173 178 271 183 10 280 316 314 292 242 163 278 217 286 291 326
23 17 11 12 17 28 88 100 117 105 147 159 139 147 136 145 108 133 128 123 119 106 113 104 90 70 73 104 57 348 144 142 117 279 318 281 51 299 287 291 290 287 281 294
27 14 14 13 17 19 86 104 112 120 128 130 123 139 129 112 97 106 127 58 68 139 126 97 87 118 105 79 54 67 218 147 147 255 262 292 296 82 86 282 292 334 342 332
50 16 13 14 13 17 81 77 33 95 124 211 141 132 159 140 132 117 86 79 61 80 87 81 139 222 271 181 153 69 83 105 226 188 258 265 11 42 328 298 272 68 348 337
82 31 12 14 11 12 72 82 11 113 104 150 158 150 162 132 131 130 137 153 127 352 116 148 184 216 298 236 215 208 157 164 230 240 252 268 314 62 305 292 337 336 338 322
132 63 18 15 12 4 5 95 15 49 99 142 192 159 142 141 163 152 148 141 152 103 150 169 196 201 199 212 247 219 264 242 227 197 255 267 108 305 263 312 325 285 261 304
171 147 19 14 13 8 348 115 50 12 88 122 73 51 22 27 161 138 168 132 147 160 126 178 147 193 180 217 256 205 259 205 270 204 244 272 303 297 279 199 232 274 276 308
190 179 190 1 17 16 27 112 97 76 106 92 154 161 69 63 70 122 139 203 148 158 59 148 156 217 167 207 232 250 249 237 248 273 264 273 297 308 239 255 151 160 231 277
196 189 194 4 11 8 44 99 86 77 94 141 176 345 157 355 206 146 84 132 108 114 130 134 166 206 202 216 255 243 255 272 270 277 276 290 274 325 49 219 163 215 242 273
193 187 177 156 81 45 70 85 73 58 182 161 147 128 40 18 196 159 141 144 136 144 152 165 203 195 180 201 281 256 260 266 238 252 278 272 280 322 289 224 225 250 285 302
185 188 180 177 169 4 166 166 88 17 29 123 175 69 121 36 148 160 162 167 140 159 167 189 214 201 197 201 224 274 274 261 288 273 211 247 278 161 198 240 294 311 308 300
184 182 181 187 173 119 210 195 61 25 66 128 178 210 70 61 121 86 154 144 183 174 198 204 219 206 196 201 252 263 261 302 89 82 104 236 191 227 169 292 284 287 297 301
183 183 167 154 119 110 221 46 89 56 96 77 192 206 225 190 159 180 92 150 187 194 216 153 204 159 206 244 242 128 76 71 46 77 187 163 131 158 241 276 306 306 304 311
177 149 130 118 175 171 171 119 82 58 89 201 165 169 202 157 117 118 119 158 174 125 210 196 183 189 217 226 181 137 151 216 200 152 136 144 199 306 313 312 309 309 311 317
146 133 151 201 194 127 128 50 166 215 326 114 197 164 160 190 152 148 135 170 189 200 192 188 216 237 178 159 132 152 165 174 157 152 184 235 291 307 305 301 304 309 313 312
104 101 108 120 131 87 65 165 186 160 191 187 148 179 145 10 170 148 63 176 164 219 170 219 214 231 193 171 165 151 144 146 139 97 74 294 292 297 301 306 311 308 306 304
101 114 105 106 72 77 154 174 154 188 186 169 161 153 109 112 96 121 138 171 159 213 139 225 233 185 150 151 151 153 149 138 113 287 293 296 293 296 301 303 304 303 299 297
41 51 83 152 142 171 178 177 158 156 165 164 154 119 103 108 74 97 170 180 190 155 196 231 237 149 160 163 163 160 156 160 289 294 289 289 291 294 298 294 292 291 298 301
75 85 105 93 99 41 67 6 87 86 114 114 106 90 99 97 98 113 170 89 196 214 225 225 175 172 160 148 141 149 168 305 295 291 289 283 291 291 287 275 278 288 296 301
74 26 79 81 111 85 88 94 92 63 119 113 104 82 122 105 113 102 129 168 227 233 238 150 158 151 150 154 164 210 296 295 290 295 293 286 287 286 289 285 279 277 281 284
64 86 107 112 103 135 115 115 112 87 121 87 78 133 163 141 135 166 196 198 226 194 173 124 135 152 182 197 223 286 293 293 291 288 280 278 280 284 291 295 289 281 273 280
109 70 63 74 74 160 146 139 147 147 148 168 164 179 163 126 168 206 196 221 201 142 137 144 172 212 207 224 273 283 286 285 281 276 274 279 284 284 290 296 310 309 298 281